Location: Fernhill
(41.0167°S, 175.6333°E)
Time: 16:30:40
(UTC+00:00)

Cosmos 1833 Rocket - Pass Details

Date: 20 February 2026
Orbit: 832 x 837 km, 71.0° (Epoch: 8 March)

Event Time Altitude Azimuth Distance (km) Brightness Sun altitude
Exits shadow 14:04:23 15° 226° (SW) 2,165 4.9 -33.9°
Drops below altitude 10° 14:07:20 10° 194° (SSW) 2,478 5.6 -33.7°
Sets 14:11:04 0° 170° (S) 3,421 6.8 -33.3°
